Location: Moscow
(55.7500°N, 37.5830°E)
Time: 19:31:45
(UTC+03:00)

ISS - Pass Details

Date: 21 May 2021
Orbit: 417 x 422 km, 51.6° (Epoch: 16 June)

Event Time Altitude Azimuth Distance (km) Brightness Sun altitude
Rises 23:58:55 0° 272° (W) 2,370 0.2 -13.9°
Reaches altitude 10° 00:01:12 10° 260° (W) 1,505 -1.0 -13.9°
Maximum altitude 00:04:07 28° 200° (SSW) 834 -2.8 -13.9°
Enters shadow 00:04:20 27° 193° (SSW) 839 -2.8 -13.9°
